Regional Weather Roundup
Issued by NWS

Home | Current Version | Previous Version | Text Only | Print | Product List | Glossary Off
Versions: 1 2 3 4 5 6 7 8 9 10 11 12 13 14 15 16 17 18 19 20 21 22 23 24 25 26 27 28 29 30 31 32 33 34 35 36 37 38 39 40 41 42 43 44 45 46 47 48 49 50

000
ASUS45 KSLC 282010
RWRUT

UTAH REGIONAL WEATHER ROUNDUP
NATIONAL WEATHER SERVICE SALT LAKE CITY UT
200 PM MDT THU MAY 28 2015

UTZ001>011-023>025-282100-

NORTHERN UTAH

CITY           SKY/WX    TMP DP  RH WIND       PRES   REMARKS
BRIGHAM CITY   PTSUNNY   65  46  49 S13       30.10F
HILL AFB       PTSUNNY   65  46  48 W10       30.12F
LOGAN          HVY RAIN  56  46  69 N9        30.10F
OGDEN          MOSUNNY   67  45  45 W7        30.11S
PROVO AIRPORT  MOSUNNY   66  43  42 W6        30.12F
SALT LAKE CITY MOSUNNY   68  46  45 NW13      30.10F
VERNAL         PTSUNNY   62  44  51 N6        30.14F
WENDOVER       MOSUNNY   66  52  59 SE8       30.11F
HEBER CITY     MOSUNNY   64  37  36 W7        30.13F
WEST JORDAN    PTSUNNY   68  46  45 NW12      30.12F

$$

UTZ012>022-026-027-282100-

SOUTHERN/CENTRAL UTAH

CITY           SKY/WX    TMP DP  RH WIND       PRES   REMARKS
BLANDING       PTSUNNY   73  37  27 S3        30.19F
BRYCE CANYON   PTSUNNY   67  31  26 NW10G22   30.23F
CEDAR CITY     MOSUNNY   74  38  27 VRB5      30.12F
DELTA          MOSUNNY   71  40  32 CALM      30.12F
HANKSVILLE     PTSUNNY   75  36  23 NW5       30.07F
MILFORD        MOSUNNY   73  48  41 NE10      30.10F
MOAB/CYNLANDS  MOSUNNY   76  38  25 VRB6      30.03F
PRICE          LGT RAIN  56  41  57 S5G24     30.14F
ST GEORGE      PTCLDY    84  37  18 W5        29.99F
KANAB          SUNNY     81  34  18 SW10G21   30.11F

$$

REGIONAL REPORTS     COLORADO/ARIZONA

CITY           SKY/WX    TMP DP  RH WIND       PRES   REMARKS
CRAIG, CO      LGT RAIN  59  42  53 NW10      30.13F
GRAND JUNCTION MOSUNNY   73  37  27 NW10G18   30.05F
RIFLE          MOSUNNY   69  43  38 SW6       30.08F
MONTROSE       MOSUNNY   70  37  29 NW9       30.11F
CORTEZ         SUNNY     76  29  17 W13G21    30.11F
PAGE, AZ       SUNNY     81  36  19 SE7       30.04F
GRAND CANYON   SUNNY     74  25  16 VRB6G14   30.20F
KINGMAN        SUNNY     88  23   9 SW8       30.03F
FLAGSTAFF      SUNNY     71  26  18 SW12      30.22F

$$

REGIONAL REPORTS    NEVADA/IDAHO/WYOMING

CITY           SKY/WX    TMP DP  RH WIND       PRES   REMARKS
LAS VEGAS, NV  MOSUNNY   92  32  12 S12       29.89F
ELY            MOSUNNY   68  36  30 VRB5      30.17S
ELKO           MOSUNNY   68  43  40 CALM      30.13S THUNDER
POCATELLO, ID  MOSUNNY   64  42  44 VRB3      30.13F
BURLEY         SUNNY     67  45  45 W12G20    30.11F
EVANSTON, WY   PTSUNNY   56  37  49 W18G26    30.18R
ROCK SPRINGS   MOSUNNY   56  38  50 W17       30.17R
KEMMERER       CLOUDY    50  37  62 NW15      30.20S

$$


USA.gov is the U.S. government's official web portal to all federal, state and local government web resources and services.